Hourly Data Report for October 03, 2015

All times are specified in Local Standard Time (LST). Add 1 hour to adjust for Daylight Saving Time where and when it is observed.

SAINT JOHN A
NEW BRUNSWICK

45°18'58.000" N
65°53'24.000" W
108.80 m
8104901
71609
YSJ

Download Data

Hourly Data (October 2015)
Hourly Data Report for October 3, 2015
Temp Definition
°C
Dew Point Temp Definition
°C
Rel Hum Definition
%
Wind Dir Definition
10's deg

Wind Spd Definition
km/h
Visibility Definition
km
Stn Press Definition
kPa
Hmdx Definition


Wind Chill Definition


Weather Definition


TIME
00:00 Legend Double Dagger 7.4 5.7 89 1 35 8.1 101.57     Fog
01:00 Legend Double Dagger 7.2 5.5 89 1 31 8.1 101.59     Fog
02:00 Legend Double Dagger 7.0 5.3 89 1 35 9.7 101.63     Fog
03:00 Legend Double Dagger 6.8 5.1 89 36 37 9.7 101.60     Fog
04:00 Legend Double Dagger 6.7 5.3 91 1 37 9.7 101.59     Fog
05:00 Legend Double Dagger 6.9 5.5 91 1 31 9.7 101.60     Fog
06:00 Legend Double Dagger 6.6 5.4 92 1 38 9.7 101.67     Fog
07:00 Legend Double Dagger 6.8 5.3 90 1 32 24.1 101.70     LegendNANA
08:00 Legend Double Dagger 7.1 5.3 88 1 35 24.1 101.72     Mostly Cloudy
09:00 Legend Double Dagger 7.5 5.5 87 36 36 24.1 101.76     LegendNANA
10:00 Legend Double Dagger 9.6 6.2 79 1 35 24.1 101.78     LegendNANA
11:00 Legend Double Dagger 10.0 5.4 73 1 40 24.1 101.81     Mostly Cloudy
12:00 Legend Double Dagger 12.0 5.0 62 2 30 24.1 101.84     LegendNANA
13:00 Legend Double Dagger 10.1 5.5 73 2 35 24.1 101.89     Rain Showers
14:00 Legend Double Dagger 11.3 3.4 58 3 43 24.1 101.89     Mainly Clear
15:00 Legend Double Dagger 11.2 3.5 59 3 38 24.1 101.91     LegendNANA
16:00 Legend Double Dagger 10.5 1.6 54 2 36 24.1 101.90     LegendNANA
17:00 Legend Double Dagger 9.6 1.5 57 2 26 24.1 101.95     Mainly Clear
18:00 Legend Double Dagger 7.6 1.3 64 3 21 24.1 101.99     LegendNANA
19:00 Legend Double Dagger 6.5 1.6 71 2 21 24.1 102.04     LegendNANA
20:00 Legend Double Dagger 5.7 1.6 75 3 18 24.1 102.08     Clear
21:00 Legend Double Dagger 3.4 1.5 87 10 9 24.1 102.09     LegendNANA
22:00 Legend Double Dagger 2.4 0.9 90 7 7 24.1 102.08     LegendNANA
23:00 Legend Double Dagger 2.4 1.1 91 3 13 24.1 102.08     Clear

Notes on Data Quality.

Legend

  • E = Estimated
  • M = Missing
  • NA = Not Available
  • ‡ = Partner data that is not subject to review by the National Climate Archives
Date modified: